Location: Armagh
(54.3500°N, 6.6670°W)
Time: 04:52:23
(UTC+00:00)

ISS - Pass Details

Date: 09 December 2017
Orbit: 402 x 407 km, 51.6° (Epoch: 20 January)

Event Time Altitude Azimuth Distance (km) Brightness Sun altitude
Rises 18:39:04 0° 274° (W) 2,342 1.4 -21.2°
Reaches altitude 10° 18:41:13 10° 266° (W) 1,478 0.2 -21.6°
Enters shadow 18:44:15 39° 201° (SSW) 634 -2.7 -22.0°
